TimeCST,TemperatureF,Dew PointF,Humidity,Sea Level PressureIn,VisibilityMPH,Wind Direction,Wind SpeedMPH,Gust SpeedMPH,PrecipitationIn,Events,Conditions,WindDirDegrees,DateUTC
12:13 AM,41.0,33.8,76,30.04,10.0,SE,8.1,-,N/A,,Clear,140,2012-11-18 06:13:00
12:33 AM,41.0,33.8,76,30.03,10.0,SE,9.2,-,N/A,,Clear,140,2012-11-18 06:33:00
12:52 AM,41.0,33.8,76,30.03,10.0,SE,8.1,-,N/A,,Clear,140,2012-11-18 06:52:00
1:13 AM,41.0,33.8,76,30.03,10.0,SE,6.9,-,N/A,,Clear,140,2012-11-18 07:13:00
1:33 AM,39.2,33.8,81,30.03,10.0,SSE,8.1,-,N/A,,Clear,150,2012-11-18 07:33:00
1:52 AM,39.2,33.8,81,30.02,10.0,SE,8.1,-,N/A,,Clear,140,2012-11-18 07:52:00
2:13 AM,39.2,33.8,81,30.02,10.0,SE,8.1,-,N/A,,Clear,140,2012-11-18 08:13:00
2:33 AM,39.2,33.8,81,30.02,10.0,SE,8.1,-,N/A,,Clear,140,2012-11-18 08:33:00
2:52 AM,37.4,33.8,87,30.02,10.0,SE,8.1,-,N/A,,Clear,140,2012-11-18 08:52:00
3:13 AM,37.4,33.8,87,30.02,10.0,SE,8.1,-,N/A,,Clear,140,2012-11-18 09:13:00
3:33 AM,37.4,32.0,81,30.02,10.0,SE,8.1,-,N/A,,Clear,140,2012-11-18 09:33:00
4:13 AM,35.6,32.0,87,30.01,10.0,SE,6.9,-,N/A,,Clear,140,2012-11-18 10:13:00
4:33 AM,35.6,32.0,87,30.00,10.0,SSE,6.9,-,N/A,,Clear,150,2012-11-18 10:33:00
4:52 AM,35.6,32.0,87,30.00,10.0,SE,4.6,-,N/A,,Clear,140,2012-11-18 10:52:00
5:13 AM,37.4,33.8,87,30.01,10.0,SSE,6.9,-,N/A,,Clear,150,2012-11-18 11:13:00
5:33 AM,35.6,32.0,87,30.00,10.0,SE,9.2,-,N/A,,Clear,140,2012-11-18 11:33:00
5:52 AM,35.6,32.0,87,30.00,10.0,SSE,8.1,-,N/A,,Clear,150,2012-11-18 11:52:00
6:13 AM,35.6,32.0,87,30.00,10.0,SE,8.1,-,N/A,,Clear,140,2012-11-18 12:13:00
6:32 AM,35.6,32.0,87,30.00,10.0,SE,8.1,-,N/A,,Clear,140,2012-11-18 12:32:00
6:53 AM,35.6,32.0,87,30.00,10.0,SE,6.9,-,N/A,,Clear,140,2012-11-18 12:53:00
7:12 AM,35.6,32.0,87,30.00,10.0,SE,8.1,-,N/A,,Clear,140,2012-11-18 13:12:00
7:32 AM,35.6,32.0,87,30.00,10.0,SSE,6.9,-,N/A,,Clear,150,2012-11-18 13:32:00
7:53 AM,35.6,32.0,87,30.00,10.0,SE,8.1,-,N/A,,Clear,140,2012-11-18 13:53:00
8:12 AM,35.6,32.0,87,30.00,10.0,SE,8.1,-,N/A,,Clear,140,2012-11-18 14:12:00
8:32 AM,35.6,33.8,93,30.00,10.0,SE,10.4,-,N/A,,Clear,140,2012-11-18 14:32:00
8:53 AM,37.4,33.8,87,29.99,10.0,SE,10.4,-,N/A,,Clear,140,2012-11-18 14:53:00
9:12 AM,37.4,33.8,87,29.99,10.0,SSE,10.4,-,N/A,,Clear,150,2012-11-18 15:12:00
9:32 AM,39.2,33.8,81,29.99,10.0,SSE,10.4,-,N/A,,Clear,150,2012-11-18 15:32:00
9:53 AM,41.0,33.8,76,29.99,10.0,SSE,10.4,-,N/A,,Clear,160,2012-11-18 15:53:00
10:12 AM,42.8,33.8,70,30.00,10.0,SSE,11.5,-,N/A,,Clear,160,2012-11-18 16:12:00
10:33 AM,42.8,33.8,70,30.00,10.0,SSE,12.7,-,N/A,,Clear,150,2012-11-18 16:33:00
10:53 AM,44.6,33.8,66,30.00,10.0,SSE,10.4,-,N/A,,Clear,160,2012-11-18 16:53:00
11:12 AM,44.6,35.6,71,29.99,10.0,SSE,9.2,-,N/A,,Clear,150,2012-11-18 17:12:00
11:32 AM,46.4,35.6,66,29.99,10.0,SSE,10.4,-,N/A,,Clear,150,2012-11-18 17:32:00
11:53 AM,46.4,35.6,66,29.99,10.0,SE,10.4,-,N/A,,Clear,140,2012-11-18 17:53:00
12:12 PM,46.4,35.6,66,29.98,10.0,SE,11.5,-,N/A,,Clear,140,2012-11-18 18:12:00
12:32 PM,46.4,35.6,66,29.98,10.0,SSE,11.5,-,N/A,,Clear,150,2012-11-18 18:32:00
12:53 PM,48.2,35.6,62,29.98,10.0,SSE,11.5,-,N/A,,Clear,160,2012-11-18 18:53:00
1:12 PM,50.0,35.6,58,29.98,10.0,SSE,11.5,-,N/A,,Clear,160,2012-11-18 19:12:00
1:32 PM,50.0,35.6,58,29.97,10.0,SSE,10.4,-,N/A,,Clear,150,2012-11-18 19:32:00
2:12 PM,50.0,35.6,58,29.96,10.0,SE,10.4,-,N/A,,Clear,140,2012-11-18 20:12:00
2:32 PM,50.0,35.6,58,29.96,10.0,SE,10.4,-,N/A,,Clear,140,2012-11-18 20:32:00
2:53 PM,51.8,35.6,54,29.95,10.0,SSE,11.5,-,N/A,,Clear,150,2012-11-18 20:53:00
3:12 PM,51.8,35.6,54,29.96,10.0,SSE,10.4,-,N/A,,Clear,150,2012-11-18 21:12:00
3:32 PM,50.0,35.6,58,29.96,10.0,SSE,13.8,-,N/A,,Clear,160,2012-11-18 21:32:00
3:53 PM,50.0,35.6,58,29.96,10.0,SSE,12.7,-,N/A,,Clear,160,2012-11-18 21:53:00
4:12 PM,50.0,35.6,58,29.96,10.0,SE,6.9,-,N/A,,Clear,140,2012-11-18 22:12:00
4:32 PM,46.4,35.6,66,29.97,10.0,SE,9.2,-,N/A,,Clear,140,2012-11-18 22:32:00
4:53 PM,46.4,35.6,66,29.97,10.0,SE,9.2,-,N/A,,Clear,140,2012-11-18 22:53:00
5:13 PM,44.6,35.6,71,29.98,10.0,SE,8.1,-,N/A,,Clear,140,2012-11-18 23:13:00
5:32 PM,44.6,35.6,71,29.98,10.0,SE,9.2,-,N/A,,Clear,140,2012-11-18 23:32:00
5:53 PM,44.6,35.6,71,29.98,10.0,SE,8.1,-,N/A,,Clear,140,2012-11-18 23:53:00
6:13 PM,44.6,35.6,71,29.98,10.0,SE,9.2,-,N/A,,Clear,140,2012-11-19 00:13:00
6:32 PM,44.6,35.6,71,29.97,10.0,SE,10.4,-,N/A,,Clear,140,2012-11-19 00:32:00
6:53 PM,44.6,35.6,71,29.97,10.0,SE,10.4,-,N/A,,Clear,140,2012-11-19 00:53:00
7:13 PM,44.6,35.6,71,29.97,10.0,SE,10.4,-,N/A,,Clear,140,2012-11-19 01:13:00
7:32 PM,44.6,35.6,71,29.97,10.0,SE,8.1,-,N/A,,Clear,140,2012-11-19 01:32:00
7:53 PM,44.6,35.6,71,29.96,10.0,SE,11.5,-,N/A,,Clear,140,2012-11-19 01:53:00
8:13 PM,44.6,35.6,71,29.96,10.0,SSE,10.4,-,N/A,,Clear,150,2012-11-19 02:13:00
8:32 PM,46.4,35.6,66,29.96,10.0,SSE,11.5,17.3,N/A,,Clear,160,2012-11-19 02:32:00
8:53 PM,46.4,35.6,66,29.96,10.0,SSE,11.5,-,N/A,,Clear,160,2012-11-19 02:53:00
9:13 PM,46.4,35.6,66,29.95,10.0,SSE,12.7,-,N/A,,Clear,160,2012-11-19 03:13:00
9:32 PM,44.6,35.6,71,29.96,10.0,SSE,11.5,-,N/A,,Clear,160,2012-11-19 03:32:00
9:53 PM,42.8,35.6,76,29.95,10.0,SSE,9.2,-,N/A,,Clear,150,2012-11-19 03:53:00
10:13 PM,42.8,35.6,76,29.95,10.0,SSE,9.2,-,N/A,,Clear,150,2012-11-19 04:13:00
10:32 PM,42.8,35.6,76,29.95,10.0,SSE,8.1,-,N/A,,Clear,150,2012-11-19 04:32:00
11:13 PM,44.6,35.6,71,29.95,10.0,SSE,9.2,-,N/A,,Clear,160,2012-11-19 05:13:00
11:32 PM,44.6,35.6,71,29.95,10.0,SSE,10.4,-,N/A,,Clear,160,2012-11-19 05:32:00
11:53 PM,46.4,35.6,66,29.95,10.0,SSE,10.4,-,N/A,,Clear,160,2012-11-19 05:53:00